Time,TemperatureF,DewpointF,PressureIn,WindDirection,WindDirectionDegrees,WindSpeedMPH,WindSpeedGustMPH,Humidity,HourlyPrecipIn,Conditions,Clouds,dailyrainin,SoftwareType,DateUTC
2013-03-06 00:04:00,19.7,5.0,30.22,SSW,201,0.0,0.0,54,0.00,,,0.00,weatherlink.com 1.10,2013-03-06 07:04:00,
2013-03-06 00:19:00,19.9,7.0,30.21,West,273,0.0,1.0,58,0.00,,,0.00,weatherlink.com 1.10,2013-03-06 07:19:00,
2013-03-06 00:34:00,21.1,8.0,30.21,West,262,0.0,1.0,57,0.00,,,0.00,weatherlink.com 1.10,2013-03-06 07:34:00,
2013-03-06 00:49:00,21.1,8.0,30.21,West,259,0.0,1.0,56,0.00,,,0.00,weatherlink.com 1.10,2013-03-06 07:49:00,
2013-03-06 01:04:00,21.2,6.0,30.22,West,267,0.0,0.0,52,0.00,,,0.00,weatherlink.com 1.10,2013-03-06 08:04:00,
2013-03-06 01:19:00,21.3,7.0,30.21,West,269,0.0,1.0,55,0.00,,,0.00,weatherlink.com 1.10,2013-03-06 08:19:00,
2013-03-06 01:34:00,20.9,3.0,30.22,East,80,0.0,0.0,47,0.00,,,0.00,weatherlink.com 1.10,2013-03-06 08:34:00,
2013-03-06 01:49:00,22.1,3.0,30.22,ESE,108,0.0,1.0,43,0.00,,,0.00,weatherlink.com 1.10,2013-03-06 08:49:00,
2013-03-06 02:04:00,20.9,4.0,30.21,ESE,107,0.0,0.0,48,0.00,,,0.00,weatherlink.com 1.10,2013-03-06 09:04:00,
2013-03-06 02:19:00,20.0,3.0,30.20,West,280,0.0,2.0,47,0.00,,,0.00,weatherlink.com 1.10,2013-03-06 09:19:00,
2013-03-06 02:34:00,20.0,4.0,30.18,ESE,122,0.0,1.0,50,0.00,,,0.00,weatherlink.com 1.10,2013-03-06 09:34:00,
2013-03-06 02:49:00,21.4,1.0,30.18,West,281,0.0,0.0,41,0.00,,,0.00,weatherlink.com 1.10,2013-03-06 09:49:00,
2013-03-06 03:04:00,22.8,1.0,30.17,SSW,213,0.0,0.0,39,0.00,,,0.00,weatherlink.com 1.10,2013-03-06 10:04:00,
2013-03-06 03:19:00,24.5,1.0,30.16,SE,145,0.0,1.0,36,0.00,,,0.00,weatherlink.com 1.10,2013-03-06 10:19:00,
2013-03-06 03:34:00,26.3,2.0,30.15,West,281,0.0,2.0,35,0.00,,,0.00,weatherlink.com 1.10,2013-03-06 10:34:00,
2013-03-06 03:49:00,27.3,3.0,30.15,WSW,238,0.0,6.0,36,0.00,,,0.00,weatherlink.com 1.10,2013-03-06 10:49:00,
2013-03-06 04:04:00,27.3,3.0,30.15,NW,315,1.0,2.0,36,0.00,,,0.00,weatherlink.com 1.10,2013-03-06 11:04:00,
2013-03-06 04:19:00,28.1,4.0,30.14,ESE,111,0.0,2.0,35,0.00,,,0.00,weatherlink.com 1.10,2013-03-06 11:19:00,
2013-03-06 04:34:00,29.1,5.0,30.14,NE,39,0.0,3.0,35,0.00,,,0.00,weatherlink.com 1.10,2013-03-06 11:34:00,
2013-03-06 04:49:00,29.2,4.0,30.14,ESE,118,0.0,3.0,34,0.00,,,0.00,weatherlink.com 1.10,2013-03-06 11:49:00,
2013-03-06 05:05:00,29.0,4.0,30.13,WSW,248,0.0,1.0,34,0.00,,,0.00,weatherlink.com 1.10,2013-03-06 12:05:00,
2013-03-06 05:20:00,29.0,6.0,30.13,SE,142,0.0,1.0,38,0.00,,,0.00,weatherlink.com 1.10,2013-03-06 12:20:00,
2013-03-06 05:35:00,28.2,5.0,30.13,ESE,122,0.0,1.0,37,0.00,,,0.00,weatherlink.com 1.10,2013-03-06 12:35:00,
2013-03-06 05:50:00,26.8,5.0,30.13,SE,146,0.0,1.0,40,0.00,,,0.00,weatherlink.com 1.10,2013-03-06 12:50:00,
2013-03-06 06:05:00,26.4,7.0,30.14,South,185,0.0,1.0,43,0.00,,,0.00,weatherlink.com 1.10,2013-03-06 13:05:00,
2013-03-06 06:20:00,26.3,5.0,30.13,WSW,238,0.0,0.0,41,0.00,,,0.00,weatherlink.com 1.10,2013-03-06 13:20:00,
2013-03-06 06:35:00,24.4,8.0,30.13,WNW,282,0.0,3.0,49,0.01,,,0.01,weatherlink.com 1.10,2013-03-06 13:35:00,
2013-03-06 06:50:00,24.1,8.0,30.13,WNW,288,0.0,1.0,50,0.01,,,0.01,weatherlink.com 1.10,2013-03-06 13:50:00,
2013-03-06 07:05:00,24.9,8.0,30.13,WNW,288,0.0,0.0,49,0.01,,,0.01,weatherlink.com 1.10,2013-03-06 14:05:00,
2013-03-06 07:20:00,25.9,8.0,30.12,SSE,163,0.0,1.0,47,0.01,,,0.01,weatherlink.com 1.10,2013-03-06 14:20:00,
2013-03-06 07:35:00,25.9,10.0,30.11,West,267,0.0,1.0,51,0.00,,,0.01,weatherlink.com 1.10,2013-03-06 14:35:00,
2013-03-06 07:50:00,27.0,8.0,30.11,West,278,0.0,1.0,45,0.00,,,0.01,weatherlink.com 1.10,2013-03-06 14:50:00,
2013-03-06 08:05:00,32.4,11.0,30.10,West,278,0.0,1.0,41,0.00,,,0.01,weatherlink.com 1.10,2013-03-06 15:05:00,
2013-03-06 08:20:00,38.4,11.0,30.09,NE,38,0.0,1.0,33,0.00,,,0.01,weatherlink.com 1.10,2013-03-06 15:20:00,
2013-03-06 08:35:00,40.2,11.0,30.09,WNW,286,0.0,2.0,30,0.00,,,0.01,weatherlink.com 1.10,2013-03-06 15:35:00,
2013-03-06 08:50:00,42.5,12.0,30.09,West,271,0.0,3.0,29,0.00,,,0.01,weatherlink.com 1.10,2013-03-06 15:50:00,
2013-03-06 09:05:00,42.3,13.0,30.07,West,281,1.0,5.0,31,0.00,,,0.01,weatherlink.com 1.10,2013-03-06 16:05:00,
2013-03-06 09:20:00,43.6,9.0,30.06,West,276,1.0,6.0,24,0.00,,,0.01,weatherlink.com 1.10,2013-03-06 16:20:00,
2013-03-06 09:36:00,45.4,9.0,30.06,NW,312,1.0,4.0,23,0.00,,,0.01,weatherlink.com 1.10,2013-03-06 16:36:00,
2013-03-06 09:50:00,45.8,7.0,30.06,South,169,0.0,10.0,20,0.00,,,0.01,weatherlink.com 1.10,2013-03-06 16:50:00,
2013-03-06 10:05:00,46.6,6.0,30.05,ENE,70,4.0,6.0,19,0.00,,,0.01,weatherlink.com 1.10,2013-03-06 17:05:00,
2013-03-06 10:20:00,46.9,6.0,30.04,ENE,60,5.0,8.0,19,0.00,,,0.01,weatherlink.com 1.10,2013-03-06 17:20:00,
2013-03-06 10:35:00,47.9,6.0,30.04,ENE,63,3.0,8.0,18,0.00,,,0.01,weatherlink.com 1.10,2013-03-06 17:35:00,
2013-03-06 10:51:00,48.3,8.0,30.03,ENE,60,0.0,6.0,19,0.00,,,0.01,weatherlink.com 1.10,2013-03-06 17:51:00,
2013-03-06 11:06:00,48.2,11.0,30.02,West,262,1.0,11.0,22,0.00,,,0.01,weatherlink.com 1.10,2013-03-06 18:06:00,
2013-03-06 11:21:00,47.8,7.0,30.01,WNW,298,3.0,7.0,19,0.00,,,0.01,weatherlink.com 1.10,2013-03-06 18:21:00,
2013-03-06 11:36:00,48.0,11.0,30.00,WNW,283,1.0,8.0,22,0.00,,,0.01,weatherlink.com 1.10,2013-03-06 18:36:00,
2013-03-06 11:51:00,48.2,14.0,29.99,WNW,292,1.0,8.0,25,0.00,,,0.01,weatherlink.com 1.10,2013-03-06 18:51:00,
2013-03-06 12:06:00,48.0,13.0,29.98,WNW,295,3.0,11.0,24,0.00,,,0.01,weatherlink.com 1.10,2013-03-06 19:06:00,
2013-03-06 12:21:00,47.6,13.0,29.97,NW,305,2.0,11.0,25,0.00,,,0.01,weatherlink.com 1.10,2013-03-06 19:21:00,
2013-03-06 12:36:00,47.9,13.0,29.97,WSW,250,2.0,12.0,24,0.00,,,0.01,weatherlink.com 1.10,2013-03-06 19:36:00,
2013-03-06 12:51:00,47.7,14.0,29.96,East,97,0.0,9.0,26,0.00,,,0.01,weatherlink.com 1.10,2013-03-06 19:51:00,
2013-03-06 13:06:00,47.7,12.0,29.95,WNW,288,0.0,8.0,24,0.00,,,0.01,weatherlink.com 1.10,2013-03-06 20:06:00,
2013-03-06 13:21:00,47.7,13.0,29.94,NW,323,3.0,9.0,25,0.00,,,0.01,weatherlink.com 1.10,2013-03-06 20:21:00,
2013-03-06 13:36:00,47.6,13.0,29.93,NW,304,1.0,5.0,25,0.00,,,0.01,weatherlink.com 1.10,2013-03-06 20:36:00,
2013-03-06 13:51:00,47.9,14.0,29.93,WNW,298,7.0,10.0,26,0.00,,,0.01,weatherlink.com 1.10,2013-03-06 20:51:00,
2013-03-06 14:06:00,47.6,11.0,29.92,NNW,332,1.0,11.0,23,0.00,,,0.01,weatherlink.com 1.10,2013-03-06 21:06:00,
2013-03-06 14:21:00,48.3,11.0,29.91,WNW,284,2.0,12.0,22,0.00,,,0.01,weatherlink.com 1.10,2013-03-06 21:21:00,
2013-03-06 14:36:00,47.8,13.0,29.90,SW,228,0.0,9.0,25,0.00,,,0.01,weatherlink.com 1.10,2013-03-06 21:36:00,
2013-03-06 14:51:00,47.1,14.0,29.89,West,275,4.0,7.0,26,0.00,,,0.01,weatherlink.com 1.10,2013-03-06 21:51:00,
2013-03-06 15:06:00,47.7,15.0,29.89,WNW,291,2.0,6.0,27,0.00,,,0.01,weatherlink.com 1.10,2013-03-06 22:06:00,
2013-03-06 15:21:00,47.8,17.0,29.88,SW,218,0.0,7.0,29,0.00,,,0.01,weatherlink.com 1.10,2013-03-06 22:21:00,
2013-03-06 15:36:00,47.6,12.0,29.88,WSW,252,0.0,5.0,24,0.00,,,0.01,weatherlink.com 1.10,2013-03-06 22:36:00,
2013-03-06 15:51:00,47.4,9.0,29.88,ENE,62,0.0,2.0,21,0.00,,,0.01,weatherlink.com 1.10,2013-03-06 22:51:00,
2013-03-06 16:06:00,46.8,10.0,29.87,ENE,68,0.0,7.0,22,0.00,,,0.01,weatherlink.com 1.10,2013-03-06 23:06:00,
2013-03-06 16:21:00,46.0,8.0,29.87,WSW,239,0.0,4.0,21,0.00,,,0.01,weatherlink.com 1.10,2013-03-06 23:21:00,
2013-03-06 16:36:00,45.4,15.0,29.86,West,269,3.0,7.0,29,0.00,,,0.01,weatherlink.com 1.10,2013-03-06 23:36:00,
2013-03-06 16:51:00,44.8,12.0,29.87,SW,215,0.0,8.0,26,0.00,,,0.01,weatherlink.com 1.10,2013-03-06 23:51:00,
2013-03-06 17:06:00,43.7,12.0,29.87,SSW,197,0.0,2.0,27,0.00,,,0.01,weatherlink.com 1.10,2013-03-07 00:06:00,
2013-03-06 17:21:00,42.4,15.0,29.88,West,264,0.0,1.0,33,0.00,,,0.01,weatherlink.com 1.10,2013-03-07 00:21:00,
2013-03-06 17:36:00,40.0,14.0,29.88,SW,231,0.0,0.0,34,0.00,,,0.01,weatherlink.com 1.10,2013-03-07 00:36:00,
2013-03-06 17:51:00,38.1,13.0,29.88,SW,231,0.0,0.0,36,0.00,,,0.01,weatherlink.com 1.10,2013-03-07 00:51:00,
2013-03-06 18:07:00,35.8,16.0,29.88,West,276,0.0,1.0,45,0.00,,,0.01,weatherlink.com 1.10,2013-03-07 01:07:00,
2013-03-06 18:21:00,34.0,16.0,29.88,West,276,0.0,0.0,48,0.00,,,0.01,weatherlink.com 1.10,2013-03-07 01:21:00,
2013-03-06 18:36:00,32.1,16.0,29.88,West,278,0.0,2.0,52,0.00,,,0.01,weatherlink.com 1.10,2013-03-07 01:36:00,
2013-03-06 18:51:00,31.4,17.0,29.88,West,281,0.0,4.0,55,0.00,,,0.01,weatherlink.com 1.10,2013-03-07 01:51:00,
2013-03-06 19:06:00,31.9,15.0,29.88,SE,142,0.0,2.0,51,0.00,,,0.01,weatherlink.com 1.10,2013-03-07 02:06:00,
2013-03-06 19:21:00,31.6,17.0,29.88,WNW,295,1.0,3.0,56,0.00,,,0.01,weatherlink.com 1.10,2013-03-07 02:21:00,
2013-03-06 19:36:00,30.2,16.0,29.88,West,278,0.0,4.0,56,0.00,,,0.01,weatherlink.com 1.10,2013-03-07 02:36:00,
2013-03-06 19:51:00,32.1,12.0,29.87,SE,129,0.0,1.0,43,0.00,,,0.01,weatherlink.com 1.10,2013-03-07 02:51:00,
2013-03-06 20:07:00,33.9,11.0,29.86,ENE,68,0.0,1.0,39,0.00,,,0.01,weatherlink.com 1.10,2013-03-07 03:07:00,
2013-03-06 20:22:00,35.1,12.0,29.87,SSE,160,0.0,2.0,39,0.00,,,0.01,weatherlink.com 1.10,2013-03-07 03:22:00,
2013-03-06 20:37:00,36.0,11.0,29.86,ENE,70,2.0,5.0,35,0.00,,,0.01,weatherlink.com 1.10,2013-03-07 03:37:00,
2013-03-06 20:52:00,36.9,11.0,29.86,SSE,152,0.0,11.0,35,0.00,,,0.01,weatherlink.com 1.10,2013-03-07 03:52:00,
2013-03-06 21:07:00,36.4,10.0,29.86,SSE,150,0.0,6.0,34,0.00,,,0.01,weatherlink.com 1.10,2013-03-07 04:07:00,
2013-03-06 21:22:00,37.0,11.0,29.86,NW,325,1.0,5.0,34,0.00,,,0.01,weatherlink.com 1.10,2013-03-07 04:22:00,
2013-03-06 21:37:00,37.8,10.0,29.85,East,79,0.0,9.0,32,0.00,,,0.01,weatherlink.com 1.10,2013-03-07 04:37:00,
2013-03-06 21:52:00,37.9,11.0,29.85,East,98,1.0,5.0,33,0.00,,,0.01,weatherlink.com 1.10,2013-03-07 04:52:00,
2013-03-06 22:07:00,38.7,11.0,29.84,North,350,0.0,6.0,32,0.00,,,0.01,weatherlink.com 1.10,2013-03-07 05:07:00,
2013-03-06 22:22:00,38.6,11.0,29.84,East,95,0.0,10.0,32,0.00,,,0.01,weatherlink.com 1.10,2013-03-07 05:22:00,
2013-03-06 22:37:00,38.1,11.0,29.83,South,190,0.0,9.0,33,0.00,,,0.01,weatherlink.com 1.10,2013-03-07 05:37:00,
2013-03-06 22:52:00,37.9,10.0,29.82,East,84,2.0,5.0,32,0.00,,,0.01,weatherlink.com 1.10,2013-03-07 05:52:00,
2013-03-06 23:07:00,37.9,10.0,29.82,SE,134,1.0,4.0,32,0.00,,,0.01,weatherlink.com 1.10,2013-03-07 06:07:00,
2013-03-06 23:22:00,37.7,10.0,29.81,East,94,0.0,3.0,32,0.00,,,0.01,weatherlink.com 1.10,2013-03-07 06:22:00,
2013-03-06 23:37:00,37.9,10.0,29.81,WNW,300,2.0,5.0,32,0.00,,,0.01,weatherlink.com 1.10,2013-03-07 06:37:00,
2013-03-06 23:52:00,38.7,10.0,29.81,WNW,284,5.0,13.0,30,0.00,,,0.01,weatherlink.com 1.10,2013-03-07 06:52:00,